Regional Weather Roundup
Issued by NWS Charleston, WV

Home | Current Version | Previous Version | Graphics & Text | Print | Product List | Glossary On
Versions: 1 2 3 4 5 6 7 8 9 10 11 12 13 14 15 16 17 18 19 20 21 22 23 24 25 26 27 28 29 30 31 32 33 34 35 36 37 38 39 40 41 42 43 44 45 46 47 48 49 50
663
ASUS41 KRLX 282310
RWRRLX
West Virginia Regional Weather Roundup
National Weather Service Charleston WV
700 PM EDT WED JUN 28 2017

Note: "fair" indicates few or no clouds below 12,000 feet with no
significant weather and/or obstructions to visibility.

WVZ003-290000-
Northern Panhandle of West Virginia

CITY           SKY/WX    TMP DP  RH WIND       PRES   REMARKS
WHEELING       MOSUNNY   72  52  49 S9        30.10F
$$

WVZ009-290000-
Northwest West Virginia

CITY           SKY/WX    TMP DP  RH WIND       PRES   REMARKS
PARKERSBURG    CLOUDY    77  52  41 S9        30.12F
$$

WVZ006-290000-
Western West Virginia

CITY           SKY/WX    TMP DP  RH WIND       PRES   REMARKS
HUNTINGTON     SUNNY     78  53  41 S3        30.08F
$$

WVZ015-290000-
West Central West Virginia

CITY           SKY/WX    TMP DP  RH WIND       PRES   REMARKS
CHARLESTON     MOSUNNY   78  48  34 VRB5      30.10F
$$

WVZ022-031-290000-
North Central West Virginia

CITY           SKY/WX    TMP DP  RH WIND       PRES   REMARKS
CLARKSBURG     SUNNY     73  51  46 S7        30.13F
MORGANTOWN     MOSUNNY   75  47  36 SW8       30.14S
$$

WVZ025-035-042-045-290000-
Southern West Virginia

CITY           SKY/WX    TMP DP  RH WIND       PRES   REMARKS
BECKLEY        SUNNY     74  46  36 S5        30.18F
LOGAN            N/A     77  54  44 CALM      30.13F
BLUEFIELD      SUNNY     72  49  44 S5        30.20F
LEWISBURG      SUNNY     73  48  40 CALM      30.19S
$$

WVZ047-290000-
Northern Mountains of West Virginia

CITY           SKY/WX    TMP DP  RH WIND       PRES   REMARKS
ELKINS         SUNNY     75  45  34 CALM      30.16F
$$

WVZ052-290000-
Eastern Panhandle of West Virginia

CITY           SKY/WX    TMP DP  RH WIND       PRES   REMARKS
MARTINSBURG    CLOUDY    76  51  41 SE5       30.11F
PETERSBURG     CLOUDY    81  49  32 CALM      30.11F
$$




USA.gov is the U.S. government's official web portal to all federal, state and local government web resources and services.